Humidity-temperature Sensor

Selected Measurement Type: Relative Humidity

 
Relative Humidity [%]     6 entries per hour
Showing data from 10/1/2020 (23:00:00 Z) to 9/30/2020 (00:01:00 Z)
Previous Next [ Day | 3-Days | 7-Days ]
First Last
Prev [ Day | 3-Days | 7-Days ] Next
First Last

Start Time:     :
End Time:     :     
Time (in GMT) :00 :50 :40 :30 :20 :10
Previous Next [ Day | 3-Days | 7-Days ]
First Last
Prev [ Day | 3-Days | 7-Days ] Next
First Last


123 => good data
MM => data is determined as missing
-- => data not received/configured
Back to Top Back to Top
10/1/2020 23:00 to 22:10 88.87 88.89 88.80 87.98 88.93 88.17
10/1/2020 22:00 to 21:10 87.69 89.03 88.74 91.47 89.20 88.06
10/1/2020 21:00 to 20:10 87.77 87.44 88.06 90.60 91.45 90.48
10/1/2020 20:00 to 19:10 88.72 89.36 88.76 89.05 88.29 87.96
10/1/2020 19:00 to 18:10 88.33 88.83 90.33 92.35 92.21 88.76
10/1/2020 18:00 to 17:10 90.39 90.54 90.62 91.30 91.74 90.37
10/1/2020 17:00 to 16:10 91.34 92.99 97.20 97.82 96.48 90.91
10/1/2020 16:00 to 15:10 88.37 90.15 88.68 88.89 87.98 87.01
10/1/2020 15:00 to 14:10 88.29 87.50 89.94 91.36 89.36 87.24
10/1/2020 14:00 to 13:10 88.33 88.66 88.14 87.53 88.56 89.88
10/1/2020 13:00 to 12:10 92.31 93.04 92.35 89.92 88.78 88.50
10/1/2020 12:00 to 11:10 87.26 88.08 87.69 86.99 87.96 88.47
10/1/2020 11:00 to 10:10 89.53 90.72 92.68 88.39 88.02 88.14
10/1/2020 10:00 to 9:10 88.25 86.72 85.19 86.41 86.31 86.87
10/1/2020 09:00 to 8:10 86.53 87.11 86.68 85.57 86.12 85.87
10/1/2020 08:00 to 7:10 86.08 86.31 86.12 86.33 86.08 86.31
10/1/2020 07:00 to 6:10 86.70 85.98 86.37 85.75 86.39 86.12
10/1/2020 06:00 to 5:10 85.71 85.75 87.01 86.27 86.93 86.62
10/1/2020 05:00 to 4:10 86.80 86.27 85.83 87.17 86.89 86.70
10/1/2020 04:00 to 3:10 85.94 85.50 85.61 86.20 85.77 84.72
10/1/2020 03:00 to 2:10 85.59 84.60 84.70 85.52 85.32 85.03
10/1/2020 02:00 to 1:10 85.32 85.54 85.13 85.42 85.21 85.94
10/1/2020 01:00 to 0:10 85.69 85.05 85.13 86.31 86.39 86.31
10/1/2020 00:00 to 23:10 86.70 86.53 86.02 86.60 85.77 85.96
9/30/2020 23:00 to 22:10 85.57 86.97 86.04 85.73 85.36 85.11
9/30/2020 22:00 to 21:10 84.31 86.49 86.16 85.42 85.11 85.81
9/30/2020 21:00 to 20:10 84.66 85.75 85.54 85.98 84.31 86.82
9/30/2020 20:00 to 19:10 87.65 86.93 87.48 87.48 86.97 86.06
9/30/2020 19:00 to 18:10 86.35 85.42 84.55 85.05 85.21 85.34
9/30/2020 18:00 to 17:10 85.81 85.71 86.64 87.05 87.36 87.71
9/30/2020 17:00 to 16:10 86.10 86.35 86.60 86.45 87.24 86.08
9/30/2020 16:00 to 15:10 85.59 85.69 84.74 85.32 86.04 85.36
9/30/2020 15:00 to 14:10 85.28 85.28 86.58 84.99 85.21 85.42
9/30/2020 14:00 to 13:10 85.85 87.05 85.44 84.99 85.81 85.48
9/30/2020 13:00 to 12:10 87.07 87.07 86.76 87.03 86.87 87.30
9/30/2020 12:00 to 11:10 86.74 87.61 86.76 86.02 86.66 86.35
9/30/2020 11:00 to 10:10 86.58 86.91 86.80 86.66 87.01 88.06
9/30/2020 10:00 to 9:10 87.90 85.87 86.29 86.76 86.14 85.61
9/30/2020 09:00 to 8:10 86.43 85.83 86.84 88.00 87.77 87.53
9/30/2020 08:00 to 7:10 87.48 87.75 87.48 86.82 86.97 86.82
9/30/2020 07:00 to 6:10 86.51 86.68 86.16 86.95 87.55 87.90
9/30/2020 06:00 to 5:10 88.12 88.54 88.25 88.33 88.17 87.61
9/30/2020 05:00 to 4:10 89.13 89.07 88.76 88.39 87.48 86.78
9/30/2020 04:00 to 3:10 88.47 88.41 89.24 87.09 87.07 87.01
9/30/2020 03:00 to 2:10 89.11 88.02 87.98 88.78 88.66 89.36
9/30/2020 02:00 to 1:10 88.52 88.66 89.05 88.68 89.34 89.61
9/30/2020 01:00 to 0:10 89.01 88.78 89.77 90.41 89.73 89.96